Belfast/George Best Belfast City Airport

Airport
ICAO code: 
EGAC
IATA Code: 
BHD
Summary
ICAO Region: 
EUR
Territory: 
Location: 
Port of Belfast, Northern Ireland
Serving: 
Belfast
Elevation: 
15 ft
Coordinates: 
Aerial View: 
54° 37' 10.136" N, 5° 52' 26.175" W
Metar
Observation
EGAC 240620Z AUTO 19003KT 9999 NCD 02/02 Q1029
Station
Belfast / Harbour
Date/Time
2022-01-24 06:20:00
Wind direction
190°
Wind speed
03 kts
Lowest cloud amount
no clouds detected
Temperature
2°C
Dew point
2°C
Humidity
100%
QNH
1029 hPa
Weather condition
n/a

Description

Belfast City Airport, recently given the commercial identity 'George Best Belfast City' is a downtown airport in Belfast, County Down, Northern Ireland with a single runway and is situated adjacent to the Port of Belfast approximately 3 km from Belfast City Centre. It shares the site with the Bombardier (formerly Short Bros) aircraft manufacturing facility.

Climatology

Temperate Marine climate/Oceanic climate (Köppen climate classification Cfb) - Moderately cool summer and comparatively warm winter.

Runways

Designator Length Width Surface Rops
4/22 1829 45 ASP Yes/Yes
Airport map: 
Aerial View: 

Accidents and Serious Incidents at or in the vicinity of EGAC

SKYbrary Partners:

Safety knowledge contributed by: